Dauntless Aviation
Greetings, Guest! To participate, [sign up for a free account] or [log in]
Airports Africa Tunisia
DTTJ
DJE

Zarzis

Djerba, TUNISIA

Airport Info
Edit

Location

Latitude / Longitude: 33°52'30"N / 10°46'31"E
  33°52.5'N / 10°46.53'E
  33.8750 / 10.7755

Nearby radio navigation aids

JBA DJERBA VOR/DME on field.

Runway Information

Runway 09 /27

Dimensions: 10171 x 148 ft.
Surface: ASP
 
Runway 09
Runway 27
Latitude: 33.875031 33.875864
Longitude: 10.760342 10.793964
Elevation: 9 ft. 9 ft.
Runway true heading: 86.8 266.8
 

Instrument Procedures

  Aerodrome Chart
  Parking and Docking Chart
  Aerodrome Chart

Departure Procedures

  Arrival and Departure Routes

IAPs (Instrument Approach Procedures)

  Aircraft Stands Ins Coordinates
  Aerodrome Obstacles Chart
  RNAV (VOR/DME/GNSS Rwy 09
  VOR X Rwy 09
  ILS Y or LOC Y Rwy 09
  ILS Z or LOC Z Rwy 09
  RNAV (GNSS) Rwy 27
  VOR X Rwy 27
  VOR Z Rwy 27
  RNAV (VOR/DME Rwy 27

Departure Procedures

  SID Rwy 09
  SID Rwy 27
  SID Rwy 09 (RNAV)
  SID Rwy 27 (RNAV)
Satellite photo at:
Airport distance calculator
From:
Weather Reports

METAR

DTTJ

DTTJ 311300Z 03013KT 9999 SCT016 FEW020TCU 23/13 Q1019 NOSIG
DTTG
34.5nm SW
DTTG 311300Z 03008KT 360V080 9999 SCT020 23/10 Q1021 NOSIG

TAF

DTTJ
TAF DTTJ 311100Z 3112/0112 01013KT 9999 SCT020 BECMG 3118/3120 02014KT 9999 FEW026
DTTG
34.5nm SW
TAF DTTG 311200Z 3113/3122 02010KT 9999 SCT020 BECMG 3114/3118 02014KT 8000 SCT020 BKN026 PROB40 TEMPO 3116/3122 6000 SHRA
Safelog

 

Dauntless Aviation

© 2007-2014 Dauntless Aviation, all rights reserved
Information provided via PilotNav comes from a variety of official and unofficial data sources. As errors are possible, do not use PilotNav for primary flight planning purposes. Verify any information that you receive via PilotNav with current and canonical charts and other official documents. The material in this database is subject to database copyrights held by Dauntless Aviation and may not be copied without the express permission of Dauntless Aviation - licenses for use of part of all of this data are available for purchase; enquire via the Dauntless Aviation helpdesk. A number of mechanisms and markers exist in the database to protect against and identify infringement / copyright. Automated queries against this website are stictly prohibited, and all activity is logged and analyzed.